Location: Sternwarte ZA, Rosenfeld-Brittheim
(48.2889°N, 8.6789°E)
Time: 11:07:06
(UTC+02:00)

ISS - Pass Details

Date: 23 May 2018
Orbit: 402 x 407 km, 51.6° (Epoch: 24 May)

Event Time Altitude Azimuth Distance (km) Brightness Sun altitude
Rises 22:06:20 0° 233° (SW) 2,312 0.1 -8.3°
Reaches altitude 10° 22:08:26 10° 228° (SW) 1,455 -1.0 -8.6°
Maximum altitude 22:11:37 53° 151° (SSE) 503 -3.7 -9.0°
Drops below altitude 10° 22:14:49 10° 73° (ENE) 1,460 -1.3 -9.3°
Sets 22:16:55 0° 69° (ENE) 2,321 -0.2 -9.6°
